Kuchera_Ratio
0.0 0.0 0.0 0.0 0.0 0.0 0.0 0.0 0.0 0.0 0.0 0.0 0.0 0.0 0.0 0.0 0.0 0.0 0.0 0.0 0.0 0.0
0.0 0.0 0.0 0.0 0.0 0.0 0.0 0.0 0.0 0.0 0.0 0.0 0.0 0.0 0.0 0.0 0.0 0.0 0.0 0.0 0.0 0.0
0.0 0.0 0.0 0.0 0.0 0.0 0.0 0.0 0.0 0.0 0.0 0.0 0.0 0.0 0.0 0.0 0.0 0.0 0.0 0.0 0.0 0.0
0.0 0.0 0.0 0.0 0.0 0.0 0.0 0.0 0.0 0.0 0.0 0.0 0.0 0.0 0.0 0.0 0.0 0.0 0.0 0.0 0.0 0.0
0.0 0.0 0.0 0.0 0.0 0.0 0.0 0.0 0.0 0.0 0.0 0.0 0.0 0.0 0.0 0.0 0.0 0.0 0.0 0.0 0.0 0.0
0.0 0.0 0.0 0.0 0.0 0.0 0.0 0.0 0.0 0.0 0.0 0.0 0.0 0.0 0.0 0.0 0.0 0.0 0.0 0.0 0.3 1.8
0.0 0.0 0.0 0.0 0.0 0.0 0.0 0.0 0.0 0.0 0.0 0.0 0.0 0.0 0.0 0.0 0.0 0.0 0.1 1.3 2.6 3.6
0.0 0.0 0.0 0.0 0.0 0.0 0.0 0.0 0.0 0.0 0.0 0.0 0.0 0.0 0.0 0.0 0.0 0.8 2.1 3.0 2.9 2.0
0.0 0.0 0.0 0.0 0.0 0.0 0.0 0.0 0.0 0.0 0.0 0.2 0.0 0.0 0.0 0.0 1.9 2.8 3.4 4.2 4.7 4.0
0.0 0.0 0.0 0.0 0.0 1.0 1.0 0.0 0.4 1.2 1.0 0.9 1.3 0.0 0.0 0.0 3.3 4.9 5.4 6.0 6.4 5.2
0.0 0.0 0.0 1.5 1.6 1.2 1.3 2.0 2.1 2.3 2.9 3.3 0.6 0.0 0.0 0.0 4.9 6.3 7.0 5.7 7.8 8.3
1.2 1.8 2.4 2.5 2.5 2.8 2.9 3.3 3.8 4.3 4.5 4.8 5.5 0.0 0.0 3.3 7.3 8.0 8.4 6.8 6.4 6.9
2.3 2.1 3.2 3.5 4.3 4.4 5.3 5.3 5.6 5.8 6.1 3.0 7.3 0.0 0.0 2.8 8.5 9.7 9.4 9.7 8.2 3.9
4.3 4.3 4.5 5.5 5.9 5.8 6.3 6.5 6.5 6.8 7.3 7.9 6.9 7.4 1.4 1.0 8.4 9.8 10.5 10.3 9.3 7.8